Location: Grandview
(34.8900°N, 117.1058°W)
Time: 09:52:39
(UTC-07:00)

OTV 5 (USA 277) - Pass Details

Date: 10 October 2017
Orbit: 404 x 417 km, 43.0° (Epoch: 07 September)

Event Time Altitude Azimuth Distance (km) Brightness Sun altitude
Rises 19:48:31 0° 260° (W) 2,346 ? -19.0°
Reaches altitude 10° 19:50:42 10° 268° (W) 1,485 ? -19.5°
Maximum altitude 19:53:53 39° 339° (NNW) 631 ? -20.1°
Enters shadow 19:54:23 37° 4° (N) 666 ? -20.2°
